Location: La Brionne
(46.1728°N, 1.7849°E)
Time: 07:57:03
(UTC+00:00)

Cosmos 1726 - Pass Details

Date: 16 June 2021
Orbit: 480 x 495 km, 82.5° (Epoch: 02 August)

Event Time Altitude Azimuth Distance (km) Brightness Sun altitude
Rises 20:36:17 0° 349° (N) 2,553 6.8 -7.3°
Reaches altitude 10° 20:38:24 10° 348° (NNW) 1,668 5.8 -7.6°
Maximum altitude 20:42:02 74° 263° (W) 506 2.2 -8.0°
Drops below altitude 10° 20:45:38 10° 178° (S) 1,657 4.3 -8.5°
Enters shadow 20:46:32 - 177° (S) 2,032 4.8 -8.6°
